[[{"header":{"parameterUnit":"m.s-1","parameterCategory":1,"la1":30.2991,"la2":30.254,"lo1":-89.0895,"lo2":-89.0444,"dy":0.0017,"dx":0.0017,"nx":28,"ny":28,"refTime":"2025-07-02T21:00:00:Z","depth":0,"parameterNumber":2,"parameterNumberName":"U-component_of_WINDS"},"data":[0,0,0,0,0,0,0,0,0,0,0,0,0,0,0,0,0,0,0,0,0,0,0,0,0,0,0,0,0,0,0,0,0,0,0,0,0,0,0,0,0,0,0,0,0,0,0,0,0,0,0,0,0,0,0,0,0,0,3.7002,3.7004,0,3.7238,3.724,3.7243,3.7234,3.7231,3.7228,3.7225,3.7473,3.7482,3.7492,0,0,0,0,0,0,0,0,0,0,0,0,0,3.6551,3.6559,3.7001,3.7004,3.7007,3.7237,3.724,3.7244,3.7235,3.7231,3.7227,3.7223,3.747,3.7481,3.7493,0,0,0,0,0,0,0,0,0,0,0,0,0,3.6763,3.6562,3.7001,3.703,3.7035,3.7237,3.7241,3.7245,3.7236,3.7231,3.7226,3.7221,3.7466,3.748,3.7494,3.7683,0,0,3.7539,3.7545,0,0,0,0,0,0,0,0,3.6751,3.6779,3.7023,3.7029,3.7035,3.7201,3.7173,3.7392,3.7237,3.716,3.7225,3.7219,3.7387,3.7408,3.7463,3.7695,3.7705,3.754,3.7549,3.7555,3.7559,0,0,0,0,0,0,0,3.6736,3.6769,3.7095,3.7027,3.7034,3.7035,3.7059,3.7214,3.7299,3.7166,3.7166,3.7194,3.7389,3.7449,3.7469,3.7709,3.7539,3.7552,3.7561,3.7567,3.8112,3.8117,0,0,0,0,0,0,3.6714,3.6757,3.7087,3.7102,3.6877,3.7047,3.7074,3.7153,3.7297,3.7314,3.7198,3.7193,3.7427,3.7452,3.7477,3.771,3.7555,3.7568,3.7577,3.8106,3.8113,3.8119,0,0,0,0,0,0,3.6704,3.6744,3.7078,3.693,3.6972,3.706,3.7148,3.716,3.722,3.7321,3.7336,3.7243,3.7424,3.7457,3.7632,3.7719,3.7575,3.7588,3.8099,3.8108,3.8116,3.8176,0,0,0,0,0,0,3.6692,3.674,3.6811,3.6931,3.698,3.7227,3.7153,3.7168,3.7244,3.724,3.7367,3.7384,3.7422,3.7611,3.7647,3.7736,3.7599,3.8092,3.8103,3.8113,3.8167,3.8186,3.8202,0,0,0,0,0,3.6675,3.6819,3.6814,3.6854,3.707,3.7232,3.726,3.73,3.7251,3.7325,3.739,3.7379,3.7703,3.7629,3.7669,3.7764,3.8087,3.81,3.8112,3.8159,3.8182,3.8201,0,0,0,0,0,0,3.6708,3.6835,3.6831,3.7017,3.7114,3.723,3.7323,3.7322,3.7436,3.7427,3.7474,3.7503,3.7679,3.7739,3.7654,3.7957,3.7889,3.7911,3.7911,3.7933,3.795,3.7933,3.7612,0,0,0,0,0,3.6736,3.6854,3.696,3.7115,3.7163,3.7235,3.7307,3.7329,3.7432,3.7473,3.7551,3.7652,3.7777,3.7858,3.7979,3.8175,3.8205,3.8261,3.8279,3.8292,3.8311,3.8423,3.845,3.8162,3.8162,3.8161,0,0,3.6796,3.6881,3.6953,3.7123,3.72,3.7325,3.7269,3.7402,3.7496,3.7494,3.7664,3.7725,3.7842,3.8029,3.8116,3.8085,3.8397,3.8309,3.8319,3.8331,3.8439,3.8466,3.849,3.817,3.8169,3.8167,0,0,3.697,3.7045,3.7183,3.7261,3.7379,3.7426,3.7459,3.7577,3.7617,3.7788,3.779,3.7903,3.8116,3.82,3.8271,3.848,3.8476,3.8518,3.861,3.8718,3.8741,3.8761,3.8838,3.8865,3.8536,3.8536,3.8537,0,3.7031,3.7216,3.7254,3.7389,3.7465,3.7468,3.761,3.7685,3.7836,3.789,3.7853,3.8123,3.8201,3.841,3.8461,3.8517,3.8559,3.8504,3.8734,3.8755,3.8775,3.8849,3.8877,3.8541,3.854,3.854,3.854,0,3.7287,3.7416,3.7513,3.7658,3.7746,3.7883,3.7945,3.8029,3.8045,3.8098,3.8274,3.8369,3.851,3.8561,3.8578,3.8774,3.8751,3.8724,3.8657,3.8806,3.8876,3.8905,3.8547,3.8546,3.8544,3.8543,0,0,3.7486,3.7652,3.7687,3.7754,3.7885,3.7987,3.8126,3.8262,3.8335,3.8441,3.8561,3.8742,3.8719,3.8799,3.8826,3.8921,3.9084,3.8883,3.8886,3.8918,3.9308,3.9328,3.936,3.9081,3.9087,3.9091,3.9299,0,3.7675,3.792,3.796,3.8176,3.8297,3.8303,3.8425,3.852,3.8574,3.8687,3.8746,3.8875,3.8833,3.8882,3.8976,3.9043,3.9163,3.9029,3.9196,3.9202,3.9167,3.9397,3.9418,3.9609,3.9326,3.9331,3.9334,0,3.7928,3.8039,3.8267,3.8384,3.8436,3.8545,3.8674,3.8781,3.8891,3.8923,3.9014,3.903,3.9179,3.9105,3.9312,3.922,3.9291,3.9335,3.9344,3.9362,3.9277,3.9423,3.9671,3.97,3.9378,3.9374,3.9371,0,3.8053,3.826,3.8424,3.8481,3.862,3.8697,3.876,3.8864,3.8944,3.9059,3.9112,3.9242,3.9314,3.9417,3.9469,3.941,3.9673,3.9603,3.9707,3.9706,3.9762,3.9758,4.0027,3.9806,3.9806,3.9805,3.9804,0,3.8261,3.84,3.8482,3.8583,3.8741,3.8787,3.8943,3.9004,3.9097,3.9212,3.9226,3.9334,3.9396,3.9514,3.9556,3.9723,3.9755,3.9787,3.9797,3.9787,3.9783,3.9835,3.9823,3.9813,3.9811,3.9809,3.9808,0,3.8427,3.8487,3.8666,3.8784,3.8817,3.8929,3.9031,3.9131,3.9185,3.9331,3.9368,3.9452,3.9593,3.9655,3.9828,3.9857,4.0047,4.0047,4.001,4.0013,4.0114,4.0104,4.0426,4.0472,4.0219,4.0222,4.0224,0,3.8556,3.8664,3.8793,3.8871,3.8935,3.9059,3.9141,3.9192,3.9277,3.9412,3.9496,3.9636,3.9751,3.9976,4.0054,4.0188,4.0192,4.0296,4.0212,4.0199,4.0196,4.0189,4.0201,4.0311,4.0314,4.0316,4.0317,0,3.8779,3.8804,3.892,3.9049,3.9146,3.925,3.9352,3.9415,3.9482,3.9578,3.9721,3.981,3.9987,4.0128,4.0266,4.0333,4.0339,4.0343,4.0374,4.0365,4.034,4.0357,4.0053,4.0335,4.0334,4.0332,4.0331,4.0331,3.8932,3.9029,3.9136,3.9267,3.9349,3.9444,3.9544,3.961,3.973,3.9877,3.99,4.0053,4.0163,4.035,4.0422,4.0545,4.052,4.0565,4.0576,4.0587,4.0594,4.032,4.057,4.057,4.0569,4.0569,4.0569,0,3.9158,3.9227,3.9347,3.9488,3.9592,3.9586,3.9699,3.9787,3.9921,4.0022,4.0135,4.0301,4.0438,4.0528,4.0667,4.0748,4.0753,4.0783,4.0778,4.0794,4.0607,4.0567,4.0776,4.0776,4.0775,4.0775,4.0775,4.0775,3.9287,3.9451,3.949,3.9696,3.9765,3.9914,3.998,4.0069,4.0151,4.0334,4.0448,4.0505,4.0603,4.075,4.0876,4.0899,4.095,4.0981,4.1003,4.0828,4.0806,4.0786,4.0748,4.0991,4.0992,4.118,4.1181,4.1183]},{"header":{"parameterUnit":"m.s-1","parameterCategory":1,"la1":30.2991,"la2":30.254,"lo1":-89.0895,"lo2":-89.0444,"dy":0.0017,"dx":0.0017,"nx":28,"ny":28,"refTime":"2025-07-02T21:00:00:Z","depth":0,"parameterNumber":3,"parameterNumberName":"V-component_of_WINDS"},"data":[0,0,0,0,0,0,0,0,0,0,0,0,0,0,0,0,0,0,0,0,0,0,0,0,0,0,0,0,0,0,0,0,0,0,0,0,0,0,0,0,0,0,0,0,0,0,0,0,0,0,0,0,0,0,0,0,0,0,0.4488,0.449,0,0.46,0.4601,0.4603,0.4608,0.4606,0.4605,0.4604,0.4719,0.4724,0.4728,0,0,0,0,0,0,0,0,0,0,0,0,0,0.4278,0.4282,0.4488,0.449,0.4491,0.46,0.4601,0.4603,0.4608,0.4606,0.4605,0.4603,0.4718,0.4723,0.4728,0,0,0,0,0,0,0,0,0,0,0,0,0,0.4377,0.4283,0.4488,0.4507,0.4509,0.46,0.4601,0.4603,0.4608,0.4606,0.4604,0.4602,0.4716,0.4723,0.4729,0.4809,0,0,0.4749,0.4751,0,0,0,0,0,0,0,0,0.4372,0.4385,0.4502,0.4505,0.4509,0.4588,0.457,0.4672,0.4609,0.4571,0.4604,0.4601,0.4677,0.4687,0.4712,0.4814,0.4819,0.4749,0.4753,0.4756,0.4758,0,0,0,0,0,0,0,0.4365,0.438,0.4532,0.4504,0.4508,0.4509,0.4521,0.4589,0.4634,0.4574,0.4574,0.4588,0.4679,0.4706,0.4715,0.4821,0.4749,0.4755,0.4759,0.4761,0.4989,0.4991,0,0,0,0,0,0,0.4354,0.4374,0.4529,0.4536,0.4434,0.4514,0.4528,0.4564,0.4633,0.4642,0.4589,0.4587,0.4696,0.4707,0.4719,0.4814,0.4756,0.4762,0.4766,0.4987,0.4989,0.4992,0,0,0,0,0,0,0.435,0.4368,0.4524,0.4455,0.4475,0.452,0.4561,0.4568,0.4595,0.4645,0.4653,0.4609,0.4695,0.471,0.4785,0.4818,0.4765,0.4771,0.4984,0.4988,0.4991,0.5005,0,0,0,0,0,0,0.4344,0.4366,0.4398,0.4456,0.4479,0.4589,0.4563,0.4571,0.4606,0.4605,0.4665,0.4673,0.4694,0.4775,0.4792,0.4826,0.4776,0.4982,0.4986,0.499,0.5002,0.5009,0.5014,0,0,0,0,0,0.4336,0.4398,0.4399,0.4418,0.4519,0.4591,0.4604,0.4627,0.4609,0.464,0.4671,0.4671,0.4812,0.4783,0.4801,0.4838,0.498,0.4985,0.4989,0.4999,0.5008,0.5014,0,0,0,0,0,0,0.4344,0.4407,0.4408,0.4491,0.4535,0.4592,0.4632,0.4635,0.4686,0.4683,0.4709,0.4723,0.4796,0.4825,0.4792,0.4917,0.4894,0.4902,0.4895,0.4903,0.4909,0.49,0.4781,0,0,0,0,0,0.4355,0.4408,0.4461,0.4529,0.4551,0.4587,0.462,0.4633,0.468,0.4699,0.4736,0.4782,0.4836,0.4872,0.4925,0.5007,0.5018,0.5041,0.5047,0.5051,0.5058,0.51,0.511,0.5008,0.5008,0.5008,0,0,0.4379,0.442,0.4452,0.4531,0.4567,0.4621,0.4603,0.4662,0.4702,0.4709,0.4781,0.4809,0.4862,0.494,0.4976,0.4966,0.5089,0.5058,0.5061,0.5065,0.5106,0.5116,0.5124,0.5011,0.5011,0.501,0,0,0.445,0.4487,0.4546,0.4582,0.4636,0.466,0.4674,0.4729,0.4748,0.4821,0.4826,0.4873,0.4967,0.5003,0.5034,0.5115,0.5116,0.5131,0.5163,0.5203,0.5211,0.5218,0.5244,0.5254,0.5138,0.5138,0.5138,0,0.4472,0.4554,0.4576,0.4634,0.4667,0.4675,0.4733,0.4768,0.4836,0.4859,0.4846,0.4961,0.4998,0.5082,0.5102,0.5127,0.5143,0.5124,0.5208,0.5216,0.5223,0.5248,0.5258,0.514,0.5139,0.5139,0.5139,0,0.4578,0.4634,0.4675,0.474,0.4778,0.4836,0.4866,0.4902,0.4912,0.4936,0.5008,0.5052,0.5112,0.5133,0.5144,0.5219,0.521,0.5203,0.518,0.5233,0.5257,0.5267,0.5141,0.5141,0.5141,0.514,0,0,0.4657,0.4731,0.4746,0.4773,0.4833,0.4876,0.4934,0.4991,0.502,0.5067,0.5114,0.5192,0.5184,0.5219,0.5233,0.5269,0.5326,0.5257,0.5259,0.5266,0.5408,0.5411,0.5422,0.5328,0.533,0.5331,0.5402,0,0.4732,0.4834,0.4854,0.4942,0.4993,0.4999,0.5049,0.509,0.5113,0.5159,0.5186,0.5239,0.5226,0.5247,0.5283,0.5312,0.5355,0.5307,0.537,0.5372,0.5355,0.5435,0.544,0.5505,0.5412,0.5414,0.5415,0,0.4833,0.488,0.4973,0.5022,0.5044,0.5088,0.5141,0.5185,0.5231,0.5245,0.5282,0.5292,0.535,0.5325,0.5404,0.5371,0.5398,0.5416,0.5419,0.5425,0.5396,0.544,0.5526,0.5535,0.543,0.5429,0.5428,0,0.4878,0.4965,0.503,0.5055,0.5114,0.5145,0.5171,0.5215,0.5247,0.5293,0.5314,0.5367,0.5395,0.5435,0.5458,0.5438,0.5534,0.5512,0.5546,0.5545,0.5565,0.5563,0.5654,0.5586,0.5586,0.5586,0.5586,0,0.4958,0.5014,0.5051,0.5091,0.5153,0.5175,0.5235,0.5261,0.53,0.5344,0.5354,0.5395,0.5424,0.5469,0.5487,0.5548,0.5561,0.5573,0.5577,0.5571,0.5569,0.5588,0.5584,0.5588,0.5588,0.5587,0.5587,0,0.5018,0.5046,0.5117,0.5167,0.5181,0.5223,0.5266,0.5304,0.5327,0.5383,0.5397,0.5434,0.5486,0.5513,0.558,0.5592,0.566,0.5662,0.5644,0.5645,0.5677,0.5673,0.5782,0.5796,0.572,0.5721,0.5721,0,0.5067,0.5109,0.5163,0.5193,0.5219,0.5268,0.53,0.5324,0.5357,0.541,0.5441,0.5494,0.5538,0.5622,0.5654,0.5704,0.5706,0.5741,0.5714,0.5705,0.5703,0.57,0.5702,0.5745,0.5746,0.5746,0.5747,0,0.5148,0.5159,0.5205,0.5255,0.5293,0.5334,0.5374,0.5398,0.5428,0.5464,0.5518,0.5551,0.5618,0.567,0.5721,0.5748,0.5751,0.5755,0.5765,0.5759,0.5745,0.575,0.5655,0.5752,0.5752,0.5751,0.5751,0.5751,0.5203,0.5239,0.5282,0.5332,0.5364,0.5401,0.5438,0.5465,0.551,0.5566,0.5577,0.5633,0.5674,0.5744,0.5772,0.5815,0.5807,0.5823,0.5826,0.5829,0.5829,0.574,0.5825,0.5825,0.5825,0.5824,0.5824,0,0.5282,0.531,0.5356,0.541,0.5449,0.5449,0.5493,0.5525,0.5574,0.5613,0.5654,0.5714,0.5764,0.5799,0.5848,0.5876,0.5879,0.5888,0.5885,0.5891,0.5834,0.5819,0.5885,0.5885,0.5885,0.5885,0.5885,0.5885,0.5328,0.539,0.5405,0.5481,0.5508,0.5563,0.5587,0.562,0.565,0.5717,0.5757,0.5779,0.5816,0.5868,0.5912,0.5921,0.5938,0.5947,0.5955,0.5902,0.5895,0.5889,0.5875,0.5951,0.5951,0.6008,0.6008,0.6009]}]]